Regional Weather Roundup
Issued by NWS

Home | Current Version | Previous Version | Graphics & Text | Print | Product List | Glossary On
Versions: 1 2 3 4 5 6 7 8 9 10 11 12 13 14 15 16 17 18 19 20 21 22 23 24 25 26 27 28 29 30 31 32 33 34 35 36 37 38 39 40 41 42 43 44 45 46 47 48 49
000
ASUS45 KBOU 231210
RWRCO

WEATHER ROUNDUP FOR COLORADO
NATIONAL WEATHER SERVICE DENVER/BOULDER CO
600 AM MDT MON APR 23 2018

NOTE: "FAIR" INDICATES FEW OR NO CLOUDS BELOW 12000 FEET WITH NO
SIGNIFICANT WEATHER AND/OR OBSTRUCTIONS TO VISIBILITY.

COZ001>005-013-030-031-231300-
...NORTHWEST COLORADO...

CITY           SKY/WX    TMP DP  RH WIND       PRES   REMARKS
CRAIG          MOCLDY    35  31  85 CALM      30.10R
HAYDEN         FAIR      39  29  67 E10       30.12
MEEKER         FAIR      35  30  82 NE6       30.10S WCI  30
RANGELY        FAIR      47  34  61 CALM      30.03S
RABBIT EARS PA FAIR      34  27  75 S7        30.26S WCI  28
STEAMBOAT SPGS FAIR      33  28  79 N5        30.13R WCI  29
WALDEN         FAIR      27  21  80 E5        30.18S WCI  21
$$

COZ006>008-011-231300-
...WEST CENTRAL VALLEYS...

CITY           SKY/WX    TMP DP  RH WIND       PRES   REMARKS
GRAND JUNCTION FAIR      50  33  52 E13       30.04R
MONTROSE       FAIR      43  30  60 SE7       30.12R
EAGLE          FAIR      33  29  85 E3        30.19R
RIFLE          FAIR      39  36  89 SE3       30.11R
DELTA          MOCLDY    48  32  53 NE8       30.09S
NUCLA          NOT AVBL
$$

COZ017>023-064>068-231300-
...SOUTHWEST COLORADO...

CITY           SKY/WX    TMP DP  RH WIND       PRES   REMARKS
DURANGO        FAIR      35  23  61 CALM      30.17R
CORTEZ         FAIR      31  21  66 NE6       30.13R WCI  25
PAGOSA SPRINGS FAIR      31  19  62 CALM      30.22S
TELLURIDE      FAIR      37  27  66 SE6       30.27S
WOLF CREEK PAS FAIR      28  12  50 SW14      30.40S WCI  17
$$

COZ009-010-012-014-032>034-037-058>063-231300-
...CENTRAL COLORADO...

CITY           SKY/WX    TMP DP  RH WIND       PRES   REMARKS
ASPEN          FAIR      34  27  75 VRB3      30.17R
BUENA VISTA    FAIR      35  32  89 CALM      30.23S
COPPER MTN     NOT AVBL
BERTHOUD PASS  FAIR      28  18  64 W22G30    30.33S WCI  15
COTTONWOOD PAS FAIR      41  32  70 W3        30.27S
GUNNISON       FAIR      31  27  85 CALM      30.23R
GRANBY         FAIR      29  27  89 CALM      30.22R
KREMMLING      FAIR      34  32  93 CALM      30.20R
LEADVILLE      CLOUDY    31  30  96 E3        30.26S
MONARCH PASS   FAIR      30  23  74 SW16      30.44S WCI  19
SALIDA         FAIR      36  32  87 W6        30.29S
SUNLIGHT       FAIR      32  23  69 SW12      30.31S WCI  23
WILKERSON PASS FAIR      32  28  86 W9        30.33S WCI  24
$$

COZ069>075-231300-
...SAN LUIS VALLEY/SANGRE DE CRISTO MOUNTAINS...

CITY           SKY/WX    TMP DP  RH WIND       PRES   REMARKS
ALAMOSA        FAIR      28  19  69 CALM      30.20R
DEL NORTE      FAIR      35  23  60 W13       30.22S WCI  27
LA VETA PASS   FAIR      34  27  75 SW15G21   30.37S WCI  24
SAGUACHE       NOT AVBL
$$

COZ035-036-038>040-231300-
...NORTHERN COLORADO FRONT RANGE...

CITY           SKY/WX    TMP DP  RH WIND       PRES   REMARKS
DENVER INTL AP FAIR      39  36  89 W5        30.08S
AURORA         NOT AVBL
FRONT RANGE AP FAIR      40  36  85 S8        30.09S
ERIE MUNI ARPT FAIR      35  34  96 SW3       30.14S
BOULDER MUN AP FAIR      41  37  87 CALM      30.09S
CENTENNIAL     FAIR      39  35  86 CALM      30.09S
BROOMFIELD     FAIR      41  37  87 NW7       30.09S
FORT COLLINS   FAIR      36  34  92 CALM      30.09S
LONGMONT       FAIR      37  33  87 CALM      30.11S
$$

COZ041-046-047-076>085-087-088-231300-
...PIKES PEAK/PALMER DIVIDE AND SOUTHERN FOOTHILLS...

CITY           SKY/WX    TMP DP  RH WIND       PRES   REMARKS
COLO. SPRINGS  FAIR      36  32  85 N5        30.14F
A. F. ACADEMY  FAIR      32  32  99 N7        30.14S WCI  26
SCHRIEVER AFB  NOT AVBL
CHEYENNE MTN   FAIR      39  35  85 CALM      30.09S
ELLICOTT         N/A    N/A N/A N/A NE3       30.13S
FALCON         FAIR      33  32  94 NW5       30.15F WCI  29
FORT CARSON    FAIR      35  33  95 NW3       30.12S
LIMON          FAIR      29  28  96 CALM      30.13F
MONUMENT HILL  FAIR      32  32 100 S8        30.15S WCI  25
CANON CITY     FAIR      37  36  93 E5        30.12S
WALSENBURG     NOT AVBL
TRINIDAD       FAIR      39  34  82 SW3       30.14S
$$

COZ042>045-048>051-090-091-231300-
...NORTHEAST COLORADO...

CITY           SKY/WX    TMP DP  RH WIND       PRES   REMARKS
GREELEY ARPT   FAIR      33  32  96 N3        30.09S
AKRON          FAIR      36  33  89 S10       30.10S
BURLINGTON     FAIR      33  31  92 SW9       30.15S WCI  25
WRAY           FAIR      36  32  87 S6        30.14F
YUMA           FAIR      32  32 100 S7        30.12S WCI  26
STERLING       NOT AVBL
HOLYOKE        FAIR      34  32  93 S5        30.14S WCI  30
FORT MORGAN    FAIR      33  32  96 E3        30.09S
$$

COZ086-089-092>099-231300-
...SOUTHEAST COLORADO...

CITY           SKY/WX    TMP DP  RH WIND       PRES   REMARKS
PUEBLO         FAIR      38  33  82 CALM      30.13S
LA JUNTA       FAIR      34  31  88 SW3       30.12F
LAMAR          FAIR      34  31  88 CALM      30.14R
SPRINGFIELD      N/A     34  33  96 S6        30.15S WCI  29
$$




USA.gov is the U.S. government's official web portal to all federal, state and local government web resources and services.